Regional Weather Roundup
Issued by NWS Green Bay, WI

Home | Current Version | Previous Version | Graphics & Text | Print | Product List | Glossary Off
Versions: 1 2 3 4 5 6 7 8 9 10 11 12 13 14 15 16 17 18 19 20 21 22 23 24 25 26 27 28 29 30 31 32 33 34 35 36 37 38 39 40 41 42 43 44 45 46 47 48 49 50

000
ASUS43 KGRB 280100
RWRGRB

NORTH-CENTRAL AND NORTHEAST WISCONSIN REGIONAL WEATHER ROUNDUP
NATIONAL WEATHER SERVICE GREEN BAY WI
800 PM CDT FRI MAY 27 2016

WIZ005-009-010>012-018-019-280200-
NORTH CENTRAL WISCONSIN

CITY           SKY/WX    TMP DP  RH WIND       PRES   REMARKS
IRONWOOD       CLOUDY    57  55  94 NW3       29.80S
MANITOWISH WTR NOT AVBL
ARBOR VITAE    NOT AVBL
EAGLE RIVER    NOT AVBL
LAND O LAKES   NOT AVBL
RHINELANDER    CLOUDY    67  61  81 E15       29.83F
PHILLIPS       NOT AVBL
ANTIGO         NOT AVBL
TOMAHAWK       NOT AVBL
MERRILL        NOT AVBL
$$

WIZ013-073-280200-
NORTHEAST WISCONSIN

CITY           SKY/WX    TMP DP  RH WIND       PRES   REMARKS
IRON MOUNTAIN  CLOUDY    65  62  90 E9        29.84F
MARINETTE      CLOUDY    61  59  94 SE10      29.87S
$$

WIZ017-030-035>037-045-280200-
CENTRAL WISCONSIN

CITY           SKY/WX    TMP DP  RH WIND       PRES   REMARKS
MEDFORD        NOT AVBL
WAUSAU         RAIN      67  64  90 E10       29.78F FOG
MOSINEE        LGT RAIN  66  66 100 E12       29.80S FOG
MARSHFIELD     MOCLDY    69  65  86 E9        29.76F
WISC RAPIDS    CLOUDY    69  65  86 E8        29.78S
STEVENS POINT  NOT AVBL
WAUPACA        NOT AVBL
SHAWANO        NOT AVBL
CLINTONVILLE   NOT AVBL
WAUTOMA        CLOUDY    67  66  97 E3        29.78S
$$

WIZ038-039-048-051-280200-
FOX VALLEY

CITY           SKY/WX    TMP DP  RH WIND       PRES   REMARKS
NWS GREEN BAY  CLOUDY    67  65  93 SE12      29.83S FOG
APPLETON       LGT RAIN  66  66 100 S9        29.80R FOG
OSHKOSH        LGT RAIN  67  65  93 SE8       29.80S
FOND DU LAC    CLOUDY    69  67  93 SE8       29.80F
$$

WIZ022-050-052-280200-
EAST CENTRAL WISCONSIN

CITY           SKY/WX    TMP DP  RH WIND       PRES   REMARKS
EPHRAIM        NOT AVBL
STURGEON BAY   NOT AVBL
MANITOWOC      LGT RAIN  57  57 100 E8        29.85F FOG
SHEBOYGAN      LGT RAIN  64  62  93 S9        29.83F FOG
$$

LMZ563-521-522-541>543-280200-
LAKESHORE

STATION/POSITION TIME  TEMP    WIND        PRES    VSBY  WAVE
                       AIR SEA DIR/SP/G                  HT/PER
                 (UTC) (F)     (DEG/KT/KT) (MB)    (MI)  (FT/S)
SHEBOYGAN LKSHOR 0000   61     170/ 10/ 12 1010.9R
KEWAUNEE LKSHORE 0000                      1010.6S
ALGOMA MARINA    0017           70/ 10/ 11   N/A
NORTHPORT PIER   0000   54     140/  2/  3 1011.9F
N MID LAKE BUOY  2350   50 47  110/  8/ 10 1012.0F         0
SISTER BAY LKSHO 0020   60     120/  7/  9   N/A
CHAMBERS ISLAND  0000   62      80/  5/  8 1011.5S
MENOMINEE LKSHOR 0000                      1010.0F
$$




USA.gov is the U.S. government's official web portal to all federal, state and local government web resources and services.